Regional Weather Roundup
Issued by NWS

Home | Current Version | Previous Version | Graphics & Text | Print | Product List | Glossary On
Versions: 1 2 3 4 5 6 7 8 9 10 11 12 13 14 15 16 17 18 19 20 21 22 23 24 25 26 27 28 29 30 31 32 33 34 35 36 37 38 39 40 41 42 43 44 45 46 47 48 49 50
000
ASUS43 KMPX 261801
RWRMN
WEATHER ROUNDUP FOR MINNESOTA
NATIONAL WEATHER SERVICE TWIN CITIES/CHANHASSEN MN
100 PM CDT TUE JUL 26 2016


NOTE: "FAIR" INDICATES FEW OR NO CLOUDS BELOW 12,000 FEET WITH NO
SIGNIFICANT WEATHER AND/OR OBSTRUCTIONS TO VISIBILITY. N/A MEANS
CURRENT SKY AND/OR WEATHER CONDITIONS ARE NOT AVAILABLE.

MNZ060>063-068>070-261900-
   Twin Cities Metro

CITY           SKY/WX    TMP DP  RH WIND       PRES   REMARKS
TWIN CITIES    MOSUNNY   88  63  43 SW15G21   30.03F
6HR MIN TEMP:  72; 6HR MAX TEMP:  88;

ST PAUL        SUNNY     86  65  49 S9G18     30.02F
CRYSTAL        SUNNY     87  61  41 SW9G20    30.00F
BLAINE         MOSUNNY   88  63  42 SW10G18   30.01F
LAKEVILLE      SUNNY     84  66  54 SW7       30.05S
EDEN PRAIRIE   MOSUNNY   87  65  47 SW13      30.02F
6HR MIN TEMP:  70; 6HR MAX TEMP:  88;

LAKEVILLE      SUNNY     84  66  54 SW7       30.05S
SOUTH ST PAUL  SUNNY     87  63  45 SW10      30.02F
LAKE ELMO      FAIR      86  68  54 SW12G17   30.04S
$$
MNZ001>005-007-008-013>017-022>024-027-028-261900-
   Northwest Minnesota

CITY           SKY/WX    TMP DP  RH WIND       PRES   REMARKS
HALLOCK        SUNNY     82  70  65 W3        29.97S
ROSEAU         SUNNY     81  70  69 CALM      29.99S
WARROAD        SUNNY     77  70  78 E8        30.00S
THIEF RVR FALL SUNNY     81  64  56 NE9       29.98F
CROOKSTON      SUNNY     82  61  47 E8        29.97R
FOSSTON        CLOUDY    82  72  69 CALM      29.98F
DETROIT LAKES  PTSUNNY   73  64  73 W3        30.00F
MOORHEAD       CLOUDY    79  68  69 N3        29.96F
PARK RAPIDS    CLOUDY    76  65  68 SW7       30.00S
MAHNOMEN       FAIR      75  65  71 SW6       29.98F
$$
MNZ006-009>011-018-025>026-261900-
   North Central Minnesota

CITY           SKY/WX    TMP DP  RH WIND       PRES   REMARKS
BAUDETTE       SUNNY     81  67  62 NW7       29.98S
FLAG ISLAND    PTSUNNY   75  54  46 NE3       29.99S
INTL FALLS     CLOUDY    83  64  52 W6        29.96F
6HR MIN TEMP:  64; 6HR MAX TEMP:  83;

WASKISH        CLOUDY    81  66  61 W6        29.98S
BIG FORK       CLOUDY    84  70  61 CALM      29.97S
LONGVILLE      CLOUDY    75  68  78 SW10      30.00R
GRAND RAPIDS   CLOUDY    76  67  73 SW5       30.00R
CRANE LAKE     CLOUDY    79  66  65 VRB3      29.97S
ORR            CLOUDY    79  64  61 CALM      29.95S
COOK           CLOUDY    79  70  73 N3        29.97S
WALKER         MOCLDY    76  66  70 SW6       30.00R
$$
MNZ012-019>021-037-261900-
   Northeast Minnesota

CITY           SKY/WX    TMP DP  RH WIND       PRES   REMARKS
DULUTH         CLOUDY    80  65  59 W14       29.97R
6HR MIN TEMP:  70; 6HR MAX TEMP:  81; 6HR PCP:  0.02;

ELY            CLOUDY    79  64  61 N5        29.96F
HIBBING        CLOUDY    78  67  68 CALM      29.96S
EVELETH        CLOUDY    80  66  62 CALM      29.97S
DULUTH HARBOR  CLOUDY    84  72  65 SW14      29.94R
TWO HARBORS    PTSUNNY   82  72  69 SW10      29.92S
SILVER BAY     CLOUDY    84  66  54 W3        29.91S
GRAND MARAIS     N/A     66  60  81 SW6       29.91F
G MARAIS ARPRT CLOUDY    79  63  57 S6        29.97F
$$
MNZ029>031-032-039>041-046>048-054>057-064-261900-
   West Central Minnesota

CITY           SKY/WX    TMP DP  RH WIND       PRES   REMARKS
FERGUS FALLS   CLOUDY    79  66  65 MISG      29.98F
WHEATON        CLOUDY    86  73  66 SW5       29.97F HX  93
MORRIS         MOSUNNY   88  70  55 SW8       29.97F HX  92
ALEXANDRIA     CLOUDY    85  69  58 SW15      30.02F
ELBOW LAKE     FAIR      82  71  69 SW7       29.99F
WADENA         CLOUDY    73  66  78 SW3       30.00F
GLENWOOD       SUNNY     84  70  61 SW16      30.02S
APPLETON       MOSUNNY   86  70  58 SW8       29.98F HX  90
BENSON         CLOUDY    84  66  54 W9        30.00F
ORTONVILLE     MOSUNNY   86  68  54 W8        29.98F
MADISON        CLOUDY    86  66  51 SW7       29.99F
WILLMAR        FAIR      84  70  61 SW12      30.03F
$$
MNZ033>034-036-042>043-049>051-058-059-261900-
   Central Minnesota

CITY           SKY/WX    TMP DP  RH WIND       PRES   REMARKS
ST CLOUD       PTSUNNY   83  70  64 SW9       30.00S
6HR MIN TEMP:  68; 6HR MAX TEMP:  83;

SAUK CENTRE    FAIR      83  70  64 SW14      30.00F
PAYNESVILLE    CLOUDY    82  68  62 SW13      30.03F
AITKIN         PTSUNNY   82  64  54 SW9       29.98R
PINE RIVER     CLOUDY    77  66  69 W5        30.04R
BRAINERD       CLOUDY    78  66  66 SW9       30.01R
STAPLES        CLOUDY    79  66  65 W5        30.01S
LONG PRAIRIE   FAIR      81  68  65 SW10G16   30.01S
LITTLE FALLS   CLOUDY    82  64  54 SW8       30.00S
LITCHFIELD     MOSUNNY   84  66  54 SW7       30.02F
BUFFALO        SUNNY     85  64  50 SW7G16    30.03S
MAPLE LAKE     SUNNY     86  69  56 SW5       30.02F HX  90
HUTCHINSON     SUNNY     85  69  58 SW8       30.04F
$$
MNZ037-044-045-052-053-261900-
   East Central Minnesota

CITY           SKY/WX    TMP DP  RH WIND       PRES   REMARKS
PRINCETON      MOSUNNY   86  68  54 SW5       30.00S
MORA           CLOUDY    79  64  61 W10       30.01F
CAMBRIDGE      MOSUNNY   88  66  48 SW9       29.98F HX  90
RUSH CITY      PTSUNNY   83  67  59 SW6       30.00S
MOOSE LAKE     CLOUDY    81  66  61 SW9       29.97F
HINCKLEY       FAIR      81  70  69 SW9       29.99S
CLOQUET        PTSUNNY   81  63  54 SW8       29.98S
MCGREGOR       MOSUNNY   81  66  61 SW7       29.99S
$$
MNZ071>073-080-081-089-090-097-098-261900-
   Southwest Minnesota

CITY           SKY/WX    TMP DP  RH WIND       PRES   REMARKS
MONTEVIDEO     SUNNY     86  68  54 SW10      30.03F
GRANITE FALLS  SUNNY     85  69  59 S8        30.04F
CANBY          SUNNY     87  67  51 SW8       30.02F
MARSHALL       SUNNY     85  65  51 SW7       30.03F
REDWOOD FALLS  SUNNY     86  63  45 S5        30.03F
OLIVIA         SUNNY     82  64  54 S10G16    30.03F
PIPESTONE      MOSUNNY   82  64  54 SW8       30.08R
WINDOM         SUNNY     84  63  48 S7        30.07F
WORTHINGTON    SUNNY     83  66  56 S12       30.08F
JACKSON        SUNNY     82  61  47 SW8       30.08F
TRACY          SUNNY     86  66  51 SW6       30.06S
SLAYTON        SUNNY     83  64  51 SW10      30.08S
$$
MNZ065>067-074>077-082>085-091>093-261900-
   South Central Minnesota

CITY           SKY/WX    TMP DP  RH WIND       PRES   REMARKS
MANKATO        SUNNY     84  66  54 W6        30.06F
NEW ULM        SUNNY     84  64  51 SW5       30.05F
ST JAMES       SUNNY     81  63  54 W3        30.07F
FAIRMONT       SUNNY     82  50  32 W7        30.07S
GLENCOE        SUNNY     86  72  61 S8        30.03F HX  92
FARIBAULT      SUNNY     84  66  54 SW8       30.07F
OWATONNA       SUNNY     84  64  51 SW3       30.08S
WASECA         SUNNY     82  66  57 SW6       30.09S
ALBERT LEA     SUNNY     82  66  57 SW3       30.09S
$$
MNZ078>079-086>088-094>096-261900-
   Southeast Minnesota

CITY           SKY/WX    TMP DP  RH WIND       PRES   REMARKS
ROCHESTER      MOSUNNY   83  69  62 W5        30.09F
6HR MIN TEMP:  66; 6HR MAX TEMP:  84;

RED WING       SUNNY     88  61  40 W9        30.03F
STANTON        SUNNY     86  64  48 W7        30.04F
DODGE CENTER   SUNNY     84  66  54 SW7       30.09F
WINONA         MOSUNNY   86  68  54 W3        30.05F
AUSTIN         MOSUNNY   81  66  61 CALM      30.09F
PRESTON        SUNNY     82  66  59 CALM      30.10F
$$
ABBREVIATIONS USED IN REMARKS
   TC - TEMPERATURES IN CELSIUS
  WCI - WIND CHILL INDEX
   HX - HEAT INDEX
  VSB - VISIBILITY
$$



USA.gov is the U.S. government's official web portal to all federal, state and local government web resources and services.